Regional Weather Roundup
Issued by NWS

Home | Current Version | Previous Version | Graphics & Text | Print | Product List | Glossary On
Versions: 1 2 3 4 5 6 7 8 9 10 11 12 13 14 15 16 17 18 19 20 21 22 23 24 25 26 27 28 29 30 31 32 33 34 35 36 37 38 39 40 41 42 43 44 45 46 47 48 49 50
000
ASUS43 KOAX 290102
RWRNE

WEATHER ROUNDUP FOR NEBRASKA
NATIONAL WEATHER SERVICE OMAHA NE
700 PM CST SUN DEC 28 2014

NOTES: SATELLITE DATA IS BEING USED TO AUGMENT CLOUD COVER ABOVE
       12000 FEET.
       "FAIR" INDICATES FEW OR NO CLOUDS BELOW 12,000 FEET WITH NO
       SIGNIFICANT WEATHER AND/OR OBSTRUCTIONS TO VISIBILITY.

  * THESE STATIONS DO NOT REPORT WEATHER SUCH AS RAIN...SNOW OR FOG.

NEZ001>004-019>022-054>056-290200-
NEBRASKA PANHANDLE

CITY           SKY/WX    TMP DP  RH WIND       PRES   REMARKS
SCOTTSBLUFF    MOCLDY    18  12  77 E6        29.93R WCI  10
ALLIANCE       MOCLDY    17  16  95 SE8       29.93R WCI   7
CHADRON        LGT SNOW  23  20  88 NE12      29.98R FOG     WCI  12
SIDNEY         MOCLDY    13   5  70 W5        29.92R WCI   5
$$

NEZ057>060-069>072-079>082-290200-
SOUTHWEST NEBRASKA

CITY           SKY/WX    TMP DP  RH WIND       PRES   REMARKS
NORTH PLATTE   MOCLDY    19  14  81 E5        30.01R WCI  12
IMPERIAL       PTCLDY    14   9  80 SE6       29.98R WCI   5
LEXINGTON      CLOUDY    25  20  82 CALM      30.05R
MCCOOK         PTCLDY    21  15  78 CALM      30.03R
$$

NEZ005>010-023>029-035>040-094-290200-
NORTH CENTRAL NEBRASKA

CITY           SKY/WX    TMP DP  RH WIND       PRES   REMARKS
VALENTINE      CLOUDY    20  15  81 E10       30.06R WCI   9
AINSWORTH      LGT SNOW  20  16  85 E7        30.07R WCI  11
BROKEN BOW     CLOUDY    24  17  74 NE3       30.03R
ORD            CLOUDY    22  16  78 E5        30.07R WCI  16
$$

NEZ041-046>049-061>064-073>077-083>087-290200-
SOUTH CENTRAL NEBRASKA

CITY           SKY/WX    TMP DP  RH WIND       PRES   REMARKS
GRAND ISLAND   CLOUDY    23  17  78 NE6       30.10R WCI  16
AURORA         CLOUDY    25  19  80 NE6       30.09S WCI  18
HASTINGS       CLOUDY    26  19  74 NE5       30.07R WCI  20
HEBRON         MOCLDY    30  23  75 CALM      30.10S
HOLDREGE       CLOUDY    24  18  78 CALM      30.04R
KEARNEY *      CLOUDY    23  18  80 NE7       30.05S WCI  15
YORK           CLOUDY    25  21  86 NE7       30.11R WCI  17
$$

NEZ011>018-030>034-042>045-290200-
NORTHEAST NEBRASKA

CITY           SKY/WX    TMP DP  RH WIND       PRES   REMARKS
NORFOLK        CLOUDY    20  15  81 NE3       30.14R
ALBION         CLOUDY    19  13  79 CALM      30.12R
BLAIR          CLOUDY    26  21  82 N7        30.13R WCI  18
COLUMBUS *     CLOUDY    21  12  68 NE5       30.15R WCI  15
FREMONT        CLOUDY    25  19  78 CALM      30.16R
TEKAMAH        CLOUDY    23  17  78 N10       30.17R WCI  12
WAYNE          CLOUDY    20  15  82 NE10      30.17R WCI   9
$$

NEZ050>053-065>068-078-088>093-290200-
SOUTHEAST NEBRASKA

CITY           SKY/WX    TMP DP  RH WIND       PRES   REMARKS
LINCOLN        CLOUDY    30  21  69 N6        30.15R WCI  24
OMAHA EPPLEY   CLOUDY    27  21  78 N9        30.17R WCI  18
BEATRICE       CLOUDY    33  24  68 CALM      30.11S
FALLS CITY     CLOUDY    36  20  52 S5        30.14R WCI  32
NEBRASKA CITY  CLOUDY    32  22  67 N3        30.13R
$$

NEZ044-045-051>053-067-290200-
OMAHA AREA

CITY           SKY/WX    TMP DP  RH WIND       PRES   REMARKS
OMAHA EPPLEY   CLOUDY    27  21  78 N9        30.17R WCI  18
BLAIR          CLOUDY    26  21  82 N7        30.13R WCI  18
FREMONT        CLOUDY    25  19  78 CALM      30.16R
MILLARD        CLOUDY    29  21  73 CALM      30.15R
OFFUTT AFB     CLOUDY    30  23  74 VRB7      30.14R WCI  23
WAHOO          CLOUDY    26  20  76 N6        30.14S WCI  20
$$


USA.gov is the U.S. government's official web portal to all federal, state and local government web resources and services.